[[{"header":{"parameterUnit":"m.s-1","parameterCategory":1,"la1":30.2991,"la2":30.254,"lo1":-89.0895,"lo2":-89.0444,"dy":0.0017,"dx":0.0017,"nx":28,"ny":28,"refTime":"2025-02-13T09:00:00:Z","depth":0,"parameterNumber":2,"parameterNumberName":"U-component_of_WINDS"},"data":[0,0,0,0,0,0,0,0,0,0,0,0,0,0,0,0,0,0,0,0,0,0,0,0,0,0,0,0,0,0,0,0,0,0,0,0,0,0,0,0,0,0,0,0,0,0,0,0,0,0,0,0,0,0,0,0,0,0,1.0244,1.0245,0,1.0414,1.0416,1.0418,1.0462,1.0461,1.046,1.0459,1.0641,1.0647,1.0653,0,0,0,0,0,0,0,0,0,0,0,0,0,0.9968,0.9973,1.0243,1.0245,1.0248,1.0413,1.0416,1.0418,1.0462,1.0461,1.0459,1.0458,1.0639,1.0646,1.0653,0,0,0,0,0,0,0,0,0,0,0,0,0,1.0108,0.9974,1.0243,1.0289,1.0295,1.0413,1.0416,1.0419,1.0462,1.0461,1.0459,1.0458,1.0637,1.0646,1.0654,1.0741,0,0,1.0681,1.0685,0,0,0,0,0,0,0,0,1.01,1.0118,1.028,1.0286,1.0293,1.0415,1.0386,1.0527,1.0463,1.0399,1.0459,1.0457,1.0568,1.0582,1.0618,1.0749,1.0757,1.0682,1.0687,1.0691,1.0694,0,0,0,0,0,0,0,1.009,1.0111,1.0311,1.0283,1.0291,1.0306,1.0324,1.0413,1.0491,1.0405,1.0408,1.0427,1.0571,1.0609,1.0623,1.076,1.0682,1.069,1.0695,1.0698,1.0979,1.0981,0,0,0,0,0,0,1.0071,1.0103,1.0306,1.0316,1.019,1.0312,1.0332,1.0377,1.049,1.0505,1.0428,1.0429,1.0595,1.0612,1.0629,1.0743,1.0691,1.0699,1.0704,1.0977,1.0979,1.0982,0,0,0,0,0,0,1.0065,1.0089,1.0299,1.0211,1.0238,1.0318,1.0369,1.0382,1.042,1.0508,1.0523,1.0452,1.0595,1.0617,1.0714,1.0749,1.0703,1.0711,1.0974,1.0978,1.0981,1.0966,0,0,0,0,0,0,1.0057,1.0086,1.0117,1.0211,1.0243,1.0377,1.0371,1.0386,1.0434,1.0436,1.0534,1.0549,1.0595,1.07,1.0723,1.0761,1.0718,1.0971,1.0976,1.0979,1.0964,1.0969,1.0973,0,0,0,0,0,1.0047,1.0106,1.0118,1.0142,1.0282,1.0378,1.0397,1.0446,1.0436,1.047,1.0528,1.0546,1.0741,1.071,1.0735,1.0776,1.0969,1.0974,1.0979,1.0962,1.0968,1.0973,0,0,0,0,0,0,1.0015,1.0119,1.0133,1.0224,1.0292,1.0385,1.0429,1.045,1.0524,1.0523,1.0584,1.0606,1.07,1.0748,1.0711,1.087,1.0856,1.0866,1.0835,1.0841,1.0845,1.0832,1.0725,0,0,0,0,0,1.0019,1.0085,1.0173,1.0245,1.0279,1.0348,1.0392,1.0424,1.0498,1.0528,1.0592,1.0666,1.0745,1.0795,1.0872,1.0971,1.0997,1.1013,1.1017,1.102,1.1029,1.1092,1.1101,1.0998,1.0998,1.0998,0,0,1.0027,1.0092,1.013,1.0241,1.0297,1.0369,1.0372,1.0446,1.0502,1.054,1.0636,1.0686,1.0773,1.0873,1.0921,1.0916,1.1064,1.1027,1.1028,1.1036,1.1098,1.1107,1.1116,1.1001,1.1,1.1,0,0,1.0079,1.0132,1.02,1.0257,1.0343,1.039,1.0406,1.0498,1.0533,1.0629,1.0661,1.0731,1.0863,1.0925,1.0975,1.1057,1.1079,1.108,1.1103,1.1164,1.1172,1.118,1.1213,1.1224,1.1088,1.1088,1.1088,0,1.0078,1.0184,1.0233,1.0308,1.0358,1.0395,1.0468,1.0522,1.0629,1.0665,1.0658,1.083,1.089,1.1009,1.1029,1.1066,1.1091,1.1069,1.1166,1.1174,1.1182,1.1215,1.1227,1.1088,1.1088,1.1088,1.1088,0,1.0183,1.0256,1.0302,1.0403,1.0459,1.0532,1.0597,1.0648,1.0677,1.0726,1.0829,1.0904,1.0999,1.1029,1.1058,1.1154,1.1149,1.1153,1.1141,1.1191,1.1224,1.1236,1.1088,1.1088,1.1088,1.1088,0,0,1.0217,1.0347,1.0364,1.0413,1.0512,1.0572,1.065,1.0742,1.0787,1.0861,1.0932,1.1046,1.1052,1.1108,1.1145,1.1198,1.1265,1.1197,1.12,1.121,1.1381,1.1379,1.1392,1.1279,1.1282,1.1284,1.1375,0,1.0283,1.042,1.0469,1.0584,1.0656,1.0695,1.0764,1.0835,1.0885,1.0957,1.1013,1.1094,1.1094,1.1129,1.1182,1.1245,1.13,1.1239,1.135,1.1354,1.1329,1.1409,1.1405,1.1488,1.1388,1.139,1.1391,0,1.0378,1.0453,1.0575,1.0671,1.0703,1.0763,1.0855,1.0921,1.1005,1.1038,1.1103,1.1138,1.1227,1.1209,1.1335,1.1292,1.1342,1.138,1.1385,1.1399,1.1377,1.1428,1.1515,1.1528,1.1411,1.141,1.1408,0,1.0396,1.0528,1.0619,1.0659,1.0772,1.0815,1.0864,1.0947,1.1001,1.1082,1.1119,1.121,1.1261,1.1333,1.1394,1.1374,1.1517,1.1503,1.1552,1.155,1.1581,1.1578,1.1679,1.1608,1.1607,1.1607,1.1607,0,1.0467,1.0541,1.0629,1.0685,1.0771,1.083,1.0915,1.0968,1.1042,1.1113,1.1153,1.122,1.1295,1.1373,1.1422,1.1523,1.1544,1.1577,1.159,1.1575,1.1572,1.161,1.1607,1.1611,1.161,1.1609,1.1609,0,1.0501,1.0562,1.0665,1.0764,1.0792,1.0851,1.0939,1.0998,1.105,1.114,1.1165,1.1249,1.1344,1.1411,1.1533,1.1567,1.1677,1.1687,1.1647,1.1654,1.17,1.1697,1.1832,1.1855,1.1764,1.1765,1.1765,0,1.0543,1.0601,1.0707,1.0757,1.0806,1.0885,1.0941,1.1003,1.1061,1.1164,1.1213,1.131,1.1391,1.1541,1.1616,1.1712,1.1727,1.1768,1.1742,1.1727,1.1733,1.173,1.1739,1.1772,1.1773,1.1774,1.1774,0,1.0612,1.0641,1.0718,1.0808,1.0873,1.0947,1.1023,1.1062,1.1139,1.1202,1.1299,1.1362,1.1488,1.1586,1.169,1.1746,1.1776,1.1782,1.1799,1.1786,1.1762,1.178,1.1661,1.1779,1.1778,1.1778,1.1777,1.1777,1.0655,1.071,1.0795,1.0881,1.0945,1.1015,1.1077,1.1138,1.1219,1.1324,1.1358,1.1459,1.155,1.1692,1.175,1.1834,1.1832,1.1856,1.1863,1.1868,1.187,1.1746,1.1853,1.1853,1.1853,1.1853,1.1853,0,1.073,1.0787,1.0866,1.097,1.104,1.1058,1.1144,1.1203,1.1291,1.1371,1.1451,1.1565,1.1662,1.1746,1.1848,1.19,1.1916,1.1925,1.1923,1.1937,1.1863,1.184,1.191,1.191,1.191,1.191,1.191,1.191,1.0777,1.0873,1.0913,1.1044,1.1102,1.12,1.1248,1.1316,1.1381,1.1506,1.1586,1.1639,1.1724,1.1833,1.1925,1.1947,1.1985,1.1991,1.2018,1.1948,1.1941,1.1935,1.1913,1.1998,1.1998,1.2085,1.2085,1.2086]},{"header":{"parameterUnit":"m.s-1","parameterCategory":1,"la1":30.2991,"la2":30.254,"lo1":-89.0895,"lo2":-89.0444,"dy":0.0017,"dx":0.0017,"nx":28,"ny":28,"refTime":"2025-02-13T09:00:00:Z","depth":0,"parameterNumber":3,"parameterNumberName":"V-component_of_WINDS"},"data":[0,0,0,0,0,0,0,0,0,0,0,0,0,0,0,0,0,0,0,0,0,0,0,0,0,0,0,0,0,0,0,0,0,0,0,0,0,0,0,0,0,0,0,0,0,0,0,0,0,0,0,0,0,0,0,0,0,0,-5.4091,-5.4088,0,-5.3863,-5.3861,-5.3858,-5.3769,-5.3769,-5.377,-5.377,-5.3522,-5.3515,-5.3508,0,0,0,0,0,0,0,0,0,0,0,0,0,-5.4433,-5.4427,-5.4091,-5.4088,-5.4085,-5.3864,-5.3861,-5.3857,-5.3768,-5.3769,-5.377,-5.3771,-5.3524,-5.3516,-5.3507,0,0,0,0,0,0,0,0,0,0,0,0,0,-5.4253,-5.4425,-5.4092,-5.4015,-5.4006,-5.3864,-5.386,-5.3857,-5.3768,-5.3769,-5.377,-5.3771,-5.3527,-5.3517,-5.3506,-5.342,0,0,-5.3473,-5.3468,0,0,0,0,0,0,0,0,-5.4263,-5.424,-5.4029,-5.402,-5.4009,-5.3846,-5.389,-5.371,-5.3768,-5.3858,-5.3771,-5.3772,-5.3628,-5.3609,-5.3564,-5.3408,-5.3398,-5.3472,-5.3466,-5.3461,-5.3458,0,0,0,0,0,0,0,-5.4276,-5.4249,-5.4,-5.4026,-5.4014,-5.3986,-5.3962,-5.3855,-5.374,-5.385,-5.3843,-5.3818,-5.3623,-5.3574,-5.3557,-5.3394,-5.3472,-5.3463,-5.3456,-5.3452,-5.3152,-5.3151,0,0,0,0,0,0,-5.4303,-5.426,-5.4008,-5.3994,-5.4142,-5.3979,-5.3952,-5.3897,-5.3741,-5.3718,-5.3818,-5.3815,-5.3592,-5.357,-5.3548,-5.3434,-5.3461,-5.3451,-5.3445,-5.3154,-5.3152,-5.315,0,0,0,0,0,0,-5.4311,-5.4281,-5.4017,-5.4125,-5.4089,-5.3973,-5.3911,-5.3892,-5.3844,-5.3717,-5.3694,-5.3791,-5.3592,-5.3563,-5.3453,-5.3425,-5.3446,-5.3436,-5.3155,-5.3153,-5.3151,-5.3208,0,0,0,0,0,0,-5.4321,-5.4285,-5.4255,-5.4125,-5.4084,-5.393,-5.391,-5.3887,-5.3827,-5.3821,-5.3685,-5.3663,-5.3591,-5.3469,-5.3442,-5.341,-5.3428,-5.3157,-5.3154,-5.3152,-5.3208,-5.3208,-5.3208,0,0,0,0,0,-5.4333,-5.4277,-5.4254,-5.4223,-5.4045,-5.3929,-5.3905,-5.3827,-5.3825,-5.3791,-5.3709,-5.3667,-5.3433,-5.3459,-5.3427,-5.3392,-5.3159,-5.3155,-5.3152,-5.3208,-5.3208,-5.3208,0,0,0,0,0,0,-5.4401,-5.4259,-5.4231,-5.4132,-5.4044,-5.3914,-5.3869,-5.383,-5.3736,-5.3734,-5.3637,-5.3607,-5.3503,-5.3436,-5.3468,-5.3298,-5.3292,-5.3282,-5.3346,-5.3345,-5.3345,-5.3362,-5.3419,0,0,0,0,0,-5.4405,-5.4328,-5.4206,-5.413,-5.4088,-5.3987,-5.3933,-5.3882,-5.3784,-5.3744,-5.3654,-5.3557,-5.3461,-5.3399,-5.3304,-5.3199,-5.3165,-5.3158,-5.3159,-5.3159,-5.3151,-5.3086,-5.3081,-5.314,-5.314,-5.314,0,0,-5.4411,-5.4324,-5.4281,-5.4142,-5.4067,-5.3984,-5.3956,-5.387,-5.3805,-5.3729,-5.3621,-5.3551,-5.3435,-5.3327,-5.3274,-5.3268,-5.3127,-5.3155,-5.3157,-5.3147,-5.3082,-5.3077,-5.3072,-5.3137,-5.3138,-5.3138,0,0,-5.438,-5.4309,-5.4237,-5.4164,-5.4053,-5.3986,-5.3969,-5.3845,-5.3797,-5.3687,-5.3628,-5.3548,-5.3386,-5.3305,-5.3243,-5.3181,-5.3137,-5.3152,-5.3151,-5.3089,-5.3085,-5.308,-5.3054,-5.3047,-5.3145,-5.3145,-5.3145,0,-5.44,-5.4279,-5.4203,-5.4121,-5.4059,-5.3992,-5.3915,-5.3846,-5.3708,-5.3665,-5.3661,-5.3455,-5.3372,-5.3242,-5.3228,-5.3181,-5.3153,-5.3166,-5.3093,-5.3087,-5.3081,-5.3055,-5.3047,-5.3147,-5.3147,-5.3147,-5.3146,0,-5.4307,-5.4223,-5.4177,-5.4051,-5.3985,-5.3905,-5.3813,-5.3754,-5.3707,-5.3639,-5.3525,-5.3425,-5.3307,-5.3272,-5.3225,-5.3134,-5.3133,-5.3113,-5.3104,-5.3079,-5.3053,-5.3043,-5.315,-5.315,-5.3149,-5.3148,0,0,-5.431,-5.4145,-5.4129,-5.407,-5.3943,-5.3873,-5.3789,-5.3679,-5.3628,-5.3535,-5.3458,-5.3322,-5.3302,-5.3231,-5.3173,-5.312,-5.3073,-5.3104,-5.31,-5.3099,-5.2963,-5.2978,-5.2968,-5.3045,-5.3043,-5.3041,-5.2972,0,-5.426,-5.4113,-5.4042,-5.3922,-5.3841,-5.3776,-5.3701,-5.3612,-5.3546,-5.3463,-5.3388,-5.3292,-5.3274,-5.3231,-5.3176,-5.3091,-5.3044,-5.3095,-5.2967,-5.2963,-5.2996,-5.2955,-5.2971,-5.291,-5.2961,-5.296,-5.2958,0,-5.4182,-5.4094,-5.3968,-5.3849,-5.3812,-5.3748,-5.3639,-5.3563,-5.3459,-5.3414,-5.3336,-5.328,-5.3183,-5.3184,-5.3046,-5.3083,-5.3026,-5.2976,-5.2972,-5.2954,-5.2958,-5.2933,-5.2889,-5.2879,-5.2942,-5.2943,-5.2945,0,-5.4194,-5.4043,-5.3948,-5.3899,-5.3759,-5.3714,-5.3653,-5.355,-5.3488,-5.3391,-5.3349,-5.3241,-5.3181,-5.3096,-5.3011,-5.302,-5.2879,-5.2874,-5.2835,-5.2837,-5.2805,-5.2808,-5.2749,-5.2775,-5.2775,-5.2775,-5.2775,0,-5.4143,-5.4068,-5.3951,-5.3892,-5.3804,-5.3721,-5.3635,-5.3567,-5.3477,-5.3399,-5.3334,-5.3262,-5.3155,-5.3068,-5.3,-5.2894,-5.2867,-5.2824,-5.2806,-5.2828,-5.2833,-5.2787,-5.2788,-5.2772,-5.2773,-5.2773,-5.2774,0,-5.414,-5.406,-5.3951,-5.3829,-5.3796,-5.3736,-5.3628,-5.3565,-5.3497,-5.3399,-5.3371,-5.3261,-5.3154,-5.3062,-5.292,-5.2874,-5.2764,-5.2744,-5.28,-5.279,-5.2755,-5.2758,-5.2661,-5.2642,-5.2685,-5.2685,-5.2684,0,-5.4113,-5.4054,-5.3926,-5.3872,-5.3813,-5.3727,-5.3664,-5.3578,-5.3514,-5.3391,-5.3341,-5.3232,-5.3139,-5.2971,-5.2875,-5.2765,-5.2739,-5.2713,-5.2722,-5.2745,-5.2734,-5.2738,-5.2729,-5.2712,-5.2712,-5.2712,-5.2712,0,-5.407,-5.4033,-5.3948,-5.3848,-5.3776,-5.3692,-5.3605,-5.3563,-5.346,-5.339,-5.3284,-5.3213,-5.3069,-5.2959,-5.2839,-5.2769,-5.2721,-5.2711,-5.2695,-5.2715,-5.2749,-5.2726,-5.2797,-5.2712,-5.2712,-5.2712,-5.2712,-5.2712,-5.4051,-5.3995,-5.3897,-5.3802,-5.3729,-5.365,-5.3585,-5.3509,-5.342,-5.3301,-5.3254,-5.3144,-5.3037,-5.2872,-5.2802,-5.2711,-5.2702,-5.2681,-5.2674,-5.267,-5.2672,-5.2767,-5.2688,-5.2688,-5.2688,-5.2688,-5.2688,0,-5.4003,-5.3937,-5.3851,-5.3734,-5.3659,-5.3628,-5.3529,-5.3467,-5.3372,-5.328,-5.3191,-5.3066,-5.2958,-5.2855,-5.274,-5.2687,-5.2662,-5.2659,-5.266,-5.2644,-5.2687,-5.2711,-5.2681,-5.2681,-5.2681,-5.2681,-5.2681,-5.2681,-5.3969,-5.3871,-5.3823,-5.3686,-5.3618,-5.3515,-5.3461,-5.3385,-5.331,-5.3176,-5.3088,-5.3023,-5.2924,-5.2802,-5.27,-5.2671,-5.263,-5.2633,-5.2598,-5.264,-5.2641,-5.2643,-5.2665,-5.2626,-5.2626,-5.2562,-5.2561,-5.2561]}]]